Time,TemperatureF,DewpointF,PressureIn,WindDirection,WindDirectionDegrees,WindSpeedMPH,WindSpeedGustMPH,Humidity,HourlyPrecipIn,Conditions,Clouds,dailyrainin,SoftwareType,DateUTC
2013-10-14 00:01:00,61.7,55.5,28.11,North,0,1.1,1.1,80,0.00,,---,0.00,VWS V14.01,2013-10-14 04:01:00,
2013-10-14 00:02:00,61.7,55.5,28.11,North,0,1.1,1.1,80,0.00,,---,0.00,VWS V14.01,2013-10-14 04:02:00,
2013-10-14 00:07:00,61.9,55.7,28.08,WSW,248,0.0,1.1,80,0.00,,---,0.00,VWS V14.01,2013-10-14 04:07:00,
2013-10-14 00:12:00,61.9,55.7,28.08,WNW,292,2.2,2.2,80,0.00,,---,0.00,VWS V14.01,2013-10-14 04:12:00,
2013-10-14 00:17:00,61.9,55.7,28.08,West,270,2.0,2.0,80,0.00,,---,0.00,VWS V14.01,2013-10-14 04:17:00,
2013-10-14 00:22:00,61.9,55.7,28.08,NNW,338,2.7,2.7,80,0.00,,---,0.00,VWS V14.01,2013-10-14 04:22:00,
2013-10-14 00:28:00,61.7,55.5,28.08,NW,315,1.6,2.0,80,0.00,,---,0.00,VWS V14.01,2013-10-14 04:28:00,
2013-10-14 00:33:00,61.7,55.5,28.08,South,180,0.0,1.6,80,0.00,,---,0.00,VWS V14.01,2013-10-14 04:33:00,
2013-10-14 00:38:00,61.5,55.3,28.08,North,0,0.0,1.1,80,0.00,,---,0.00,VWS V14.01,2013-10-14 04:38:00,
2013-10-14 00:43:00,61.3,55.1,28.08,NE,45,0.0,0.0,80,0.00,,---,0.00,VWS V14.01,2013-10-14 04:43:00,
2013-10-14 00:48:00,61.3,55.1,28.08,WNW,292,0.0,2.5,80,0.00,,---,0.00,VWS V14.01,2013-10-14 04:48:00,
2013-10-14 00:53:00,61.2,55.0,28.08,NNW,338,0.0,0.0,80,0.00,,---,0.00,VWS V14.01,2013-10-14 04:53:00,
2013-10-14 00:58:00,61.2,55.0,28.08,ESE,112,2.2,2.5,80,0.00,,---,0.00,VWS V14.01,2013-10-14 04:58:00,
2013-10-14 01:03:00,61.0,55.1,28.08,NE,45,0.0,1.3,81,0.00,,---,0.00,VWS V14.01,2013-10-14 05:03:00,
2013-10-14 01:08:00,61.0,55.1,28.08,WNW,292,0.0,0.0,81,0.00,,---,0.00,VWS V14.01,2013-10-14 05:08:00,
2013-10-14 01:13:00,60.8,54.9,28.08,North,0,3.6,3.6,81,0.00,,---,0.00,VWS V14.01,2013-10-14 05:13:00,
2013-10-14 01:18:00,60.8,55.3,28.08,East,90,2.0,2.0,82,0.00,,---,0.00,VWS V14.01,2013-10-14 05:18:00,
2013-10-14 01:23:00,60.8,55.3,28.08,WNW,292,0.0,0.0,82,0.00,,---,0.00,VWS V14.01,2013-10-14 05:23:00,
2013-10-14 01:28:00,60.6,55.1,28.08,WNW,292,0.0,0.0,82,0.00,,---,0.00,VWS V14.01,2013-10-14 05:28:00,
2013-10-14 01:33:00,60.6,55.4,28.08,NW,315,4.3,4.3,83,0.00,,---,0.00,VWS V14.01,2013-10-14 05:33:00,
2013-10-14 01:38:00,60.8,55.6,28.08,WNW,292,3.4,3.4,83,0.00,,---,0.00,VWS V14.01,2013-10-14 05:38:00,
2013-10-14 01:43:00,60.8,55.6,28.08,ESE,112,1.1,2.9,83,0.00,,---,0.00,VWS V14.01,2013-10-14 05:43:00,
2013-10-14 01:48:00,61.2,56.3,28.08,NW,315,0.0,1.1,84,0.00,,---,0.00,VWS V14.01,2013-10-14 05:48:00,
2013-10-14 01:53:00,61.2,56.0,28.08,East,90,0.0,3.1,83,0.00,,---,0.00,VWS V14.01,2013-10-14 05:53:00,
2013-10-14 01:58:00,61.2,56.0,28.08,WNW,292,0.0,0.0,83,0.00,,---,0.00,VWS V14.01,2013-10-14 05:58:00,
2013-10-14 02:03:00,61.3,56.1,28.08,WNW,292,2.5,3.4,83,0.00,,---,0.00,VWS V14.01,2013-10-14 06:03:00,
2013-10-14 02:08:00,61.2,56.0,28.08,WNW,292,0.9,2.5,83,0.00,,---,0.00,VWS V14.01,2013-10-14 06:08:00,
2013-10-14 02:14:00,61.2,55.6,28.08,East,90,0.0,0.0,82,0.00,,---,0.00,VWS V14.01,2013-10-14 06:14:00,
2013-10-14 02:19:00,61.2,55.6,28.08,North,0,0.0,0.0,82,0.00,,---,0.00,VWS V14.01,2013-10-14 06:19:00,
2013-10-14 02:24:00,61.2,55.6,28.08,West,270,0.9,0.9,82,0.00,,---,0.00,VWS V14.01,2013-10-14 06:24:00,
2013-10-14 02:29:00,61.3,55.8,28.08,WNW,292,1.3,1.3,82,0.00,,---,0.00,VWS V14.01,2013-10-14 06:29:00,
2013-10-14 02:34:00,61.3,55.8,28.08,NNW,338,0.0,1.1,82,0.00,,---,0.00,VWS V14.01,2013-10-14 06:34:00,
2013-10-14 02:39:00,61.5,56.0,28.08,East,90,2.7,3.1,82,0.00,,---,0.00,VWS V14.01,2013-10-14 06:39:00,
2013-10-14 02:44:00,61.5,56.0,28.08,West,270,0.0,0.0,82,0.00,,---,0.00,VWS V14.01,2013-10-14 06:44:00,
2013-10-14 02:49:00,61.5,56.0,28.08,East,90,2.5,2.5,82,0.00,,---,0.00,VWS V14.01,2013-10-14 06:49:00,
2013-10-14 02:54:00,61.5,56.3,28.08,East,90,2.7,2.7,83,0.00,,---,0.00,VWS V14.01,2013-10-14 06:54:00,
2013-10-14 02:59:00,61.5,56.3,28.08,WNW,292,1.6,1.6,83,0.00,,---,0.00,VWS V14.01,2013-10-14 06:59:00,
2013-10-14 03:04:00,61.5,56.3,28.08,NNW,338,2.2,2.2,83,0.00,,---,0.00,VWS V14.01,2013-10-14 07:04:00,
2013-10-14 03:09:00,61.3,56.1,28.08,NNE,22,0.0,0.0,83,0.00,,---,0.00,VWS V14.01,2013-10-14 07:09:00,
2013-10-14 03:14:00,61.3,55.8,28.08,West,270,0.9,0.9,82,0.00,,---,0.00,VWS V14.01,2013-10-14 07:14:00,
2013-10-14 03:19:00,61.3,55.8,28.08,South,180,0.0,0.0,82,0.00,,---,0.00,VWS V14.01,2013-10-14 07:19:00,
2013-10-14 03:24:00,61.3,55.8,28.08,WNW,292,0.0,0.0,82,0.00,,---,0.00,VWS V14.01,2013-10-14 07:24:00,
2013-10-14 03:29:00,61.3,55.8,28.08,NNE,22,0.0,0.0,82,0.00,,---,0.00,VWS V14.01,2013-10-14 07:29:00,
2013-10-14 03:34:00,61.2,55.6,28.08,WSW,248,0.0,0.9,82,0.00,,---,0.00,VWS V14.01,2013-10-14 07:34:00,
2013-10-14 03:39:00,61.3,55.8,28.08,NNE,22,0.9,2.5,82,0.00,,---,0.00,VWS V14.01,2013-10-14 07:39:00,
2013-10-14 03:44:00,61.2,55.6,28.08,NNW,338,2.9,2.9,82,0.00,,---,0.00,VWS V14.01,2013-10-14 07:44:00,
2013-10-14 03:49:00,61.2,55.6,28.08,WNW,292,0.0,0.0,82,0.00,,---,0.00,VWS V14.01,2013-10-14 07:49:00,
2013-10-14 03:55:00,61.0,55.8,28.08,WNW,292,0.0,0.0,83,0.00,,---,0.00,VWS V14.01,2013-10-14 07:55:00,
2013-10-14 04:00:00,60.8,55.6,28.08,NNW,338,0.9,1.3,83,0.00,,---,0.00,VWS V14.01,2013-10-14 08:00:00,
2013-10-14 04:05:00,60.6,55.8,28.08,WNW,292,0.0,0.0,84,0.00,,---,0.00,VWS V14.01,2013-10-14 08:05:00,
2013-10-14 04:10:00,60.4,55.6,28.08,West,270,0.0,0.0,84,0.00,,---,0.00,VWS V14.01,2013-10-14 08:10:00,
2013-10-14 04:15:00,60.3,55.7,28.08,NE,45,0.0,0.9,85,0.00,,---,0.00,VWS V14.01,2013-10-14 08:15:00,
2013-10-14 04:20:00,60.1,55.6,28.08,NW,315,2.2,2.2,85,0.00,,---,0.00,VWS V14.01,2013-10-14 08:20:00,
2013-10-14 04:25:00,59.9,55.4,28.08,NW,315,0.0,1.1,85,0.00,,---,0.00,VWS V14.01,2013-10-14 08:25:00,
2013-10-14 04:30:00,59.9,55.7,28.08,North,0,0.0,2.0,86,0.00,,---,0.00,VWS V14.01,2013-10-14 08:30:00,
2013-10-14 04:35:00,59.7,55.8,28.08,East,90,0.0,0.0,87,0.00,,---,0.00,VWS V14.01,2013-10-14 08:35:00,
2013-10-14 04:40:00,59.7,55.8,28.08,NE,45,0.0,0.0,87,0.00,,---,0.00,VWS V14.01,2013-10-14 08:40:00,
2013-10-14 04:45:00,59.7,55.8,28.08,NW,315,0.9,2.7,87,0.00,,---,0.00,VWS V14.01,2013-10-14 08:45:00,
2013-10-14 04:50:00,59.7,55.8,28.08,NNW,338,0.0,0.0,87,0.00,,---,0.00,VWS V14.01,2013-10-14 08:50:00,
2013-10-14 04:55:00,59.7,55.8,28.08,ENE,68,0.0,1.1,87,0.00,,---,0.00,VWS V14.01,2013-10-14 08:55:00,
2013-10-14 05:00:00,59.7,55.8,28.08,NW,315,0.9,1.3,87,0.00,,---,0.00,VWS V14.01,2013-10-14 09:00:00,
2013-10-14 05:05:00,59.7,55.8,28.08,West,270,0.0,0.0,87,0.00,,---,0.00,VWS V14.01,2013-10-14 09:05:00,
2013-10-14 05:10:00,59.9,56.0,28.08,ENE,68,0.0,1.1,87,0.00,,---,0.00,VWS V14.01,2013-10-14 09:10:00,
2013-10-14 05:15:00,59.9,56.0,28.08,WNW,292,0.0,0.0,87,0.00,,---,0.00,VWS V14.01,2013-10-14 09:15:00,
2013-10-14 05:20:00,59.7,55.5,28.08,NNW,338,0.0,1.6,86,0.00,,---,0.00,VWS V14.01,2013-10-14 09:20:00,
2013-10-14 05:25:00,59.7,55.8,28.08,North,0,1.6,2.5,87,0.00,,---,0.00,VWS V14.01,2013-10-14 09:25:00,
2013-10-14 05:30:00,59.5,55.7,28.08,West,270,0.0,0.0,87,0.00,,---,0.00,VWS V14.01,2013-10-14 09:30:00,
2013-10-14 05:35:00,59.5,55.7,28.08,West,270,2.2,3.1,87,0.00,,---,0.00,VWS V14.01,2013-10-14 09:35:00,
2013-10-14 05:40:00,59.5,55.3,28.08,ENE,68,2.5,2.5,86,0.00,,---,0.00,VWS V14.01,2013-10-14 09:40:00,
2013-10-14 05:45:00,59.5,55.3,28.08,NW,315,1.1,1.6,86,0.00,,---,0.00,VWS V14.01,2013-10-14 09:45:00,
2013-10-14 05:50:00,59.4,55.2,28.08,NW,315,1.1,1.6,86,0.00,,---,0.00,VWS V14.01,2013-10-14 09:50:00,
2013-10-14 05:55:00,59.2,55.0,28.08,NW,315,1.3,2.0,86,0.00,,---,0.00,VWS V14.01,2013-10-14 09:55:00,
2013-10-14 06:01:00,59.2,55.0,28.08,NNW,338,0.9,3.1,86,0.00,,---,0.00,VWS V14.01,2013-10-14 10:01:00,
2013-10-14 06:06:00,59.2,55.0,28.08,NNW,338,2.0,2.0,86,0.00,,---,0.00,VWS V14.01,2013-10-14 10:06:00,
2013-10-14 06:11:00,59.2,55.0,28.08,NNE,22,0.0,0.0,86,0.00,,---,0.00,VWS V14.01,2013-10-14 10:11:00,
2013-10-14 06:16:00,59.2,55.3,28.08,NW,315,2.2,2.5,87,0.00,,---,0.00,VWS V14.01,2013-10-14 10:16:00,
2013-10-14 06:21:00,59.4,55.2,28.08,WSW,248,0.0,0.0,86,0.00,,---,0.00,VWS V14.01,2013-10-14 10:21:00,
2013-10-14 06:26:00,59.7,55.5,28.08,NW,315,2.7,2.7,86,0.00,,---,0.00,VWS V14.01,2013-10-14 10:26:00,
2013-10-14 06:31:00,59.7,55.5,28.08,North,0,1.3,2.0,86,0.00,,---,0.00,VWS V14.01,2013-10-14 10:31:00,
2013-10-14 06:36:00,59.5,55.3,28.08,WNW,292,0.0,3.1,86,0.00,,---,0.00,VWS V14.01,2013-10-14 10:36:00,
2013-10-14 06:41:00,59.4,55.2,28.08,West,270,0.0,0.0,86,0.00,,---,0.00,VWS V14.01,2013-10-14 10:41:00,
2013-10-14 06:46:00,59.4,55.2,28.08,NW,315,0.0,0.9,86,0.00,,---,0.00,VWS V14.01,2013-10-14 10:46:00,
2013-10-14 06:51:00,59.2,55.0,28.08,ENE,68,2.5,2.5,86,0.00,,---,0.00,VWS V14.01,2013-10-14 10:51:00,
2013-10-14 06:56:00,59.2,55.0,28.08,ESE,112,0.0,0.0,86,0.00,,---,0.00,VWS V14.01,2013-10-14 10:56:00,
2013-10-14 07:01:00,59.2,55.0,28.08,WNW,292,0.0,1.6,86,0.00,,---,0.00,VWS V14.01,2013-10-14 11:01:00,
2013-10-14 07:06:00,59.4,55.5,28.08,WNW,292,0.0,0.0,87,0.00,,---,0.00,VWS V14.01,2013-10-14 11:06:00,
2013-10-14 07:11:00,59.4,55.8,28.08,WNW,292,0.0,1.1,88,0.00,,---,0.00,VWS V14.01,2013-10-14 11:11:00,
2013-10-14 07:16:00,59.5,56.0,28.08,North,0,0.0,0.0,88,0.00,,---,0.00,VWS V14.01,2013-10-14 11:16:00,
2013-10-14 07:21:00,59.7,55.8,28.08,NE,45,1.3,3.4,87,0.00,,---,0.00,VWS V14.01,2013-10-14 11:21:00,
2013-10-14 07:26:00,59.9,56.0,28.08,North,0,1.1,2.2,87,0.00,,---,0.00,VWS V14.01,2013-10-14 11:26:00,
2013-10-14 07:31:00,59.9,55.7,28.08,NE,45,0.0,0.0,86,0.00,,---,0.00,VWS V14.01,2013-10-14 11:31:00,
2013-10-14 07:36:00,59.9,55.7,28.08,WNW,292,0.0,1.3,86,0.00,,---,0.00,VWS V14.01,2013-10-14 11:36:00,
2013-10-14 07:41:00,59.9,55.4,28.08,NNE,22,2.7,2.7,85,0.00,,---,0.00,VWS V14.01,2013-10-14 11:41:00,
2013-10-14 07:46:00,60.1,55.6,28.08,East,90,0.0,1.6,85,0.00,,---,0.00,VWS V14.01,2013-10-14 11:46:00,
2013-10-14 07:51:00,60.1,55.2,28.08,SW,225,0.0,0.0,84,0.00,,---,0.00,VWS V14.01,2013-10-14 11:51:00,
2013-10-14 07:56:00,60.1,55.2,28.08,NNE,22,2.5,2.5,84,0.00,,---,0.00,VWS V14.01,2013-10-14 11:56:00,
2013-10-14 08:02:00,60.3,55.1,28.08,WNW,292,0.9,2.2,83,0.00,,---,0.00,VWS V14.01,2013-10-14 12:02:00,
2013-10-14 08:07:00,60.3,55.1,28.08,NNW,338,2.5,2.5,83,0.00,,---,0.00,VWS V14.01,2013-10-14 12:07:00,
2013-10-14 08:12:00,60.1,54.9,28.08,WNW,292,0.0,0.0,83,0.00,,---,0.00,VWS V14.01,2013-10-14 12:12:00,
2013-10-14 08:17:00,60.1,54.9,28.08,NNW,338,0.0,0.0,83,0.00,,---,0.00,VWS V14.01,2013-10-14 12:17:00,
2013-10-14 08:22:00,60.1,54.9,28.08,WNW,292,0.9,2.7,83,0.00,,---,0.00,VWS V14.01,2013-10-14 12:22:00,
2013-10-14 08:27:00,60.1,54.9,28.08,WNW,292,0.0,1.6,83,0.00,,---,0.00,VWS V14.01,2013-10-14 12:27:00,
2013-10-14 08:32:00,60.1,54.9,28.08,ENE,68,1.1,2.0,83,0.00,,---,0.00,VWS V14.01,2013-10-14 12:32:00,
2013-10-14 08:37:00,60.3,55.1,28.08,SW,225,0.9,2.0,83,0.00,,---,0.00,VWS V14.01,2013-10-14 12:37:00,
2013-10-14 08:42:00,60.4,55.3,28.08,WNW,292,1.6,1.6,83,0.00,,---,0.00,VWS V14.01,2013-10-14 12:42:00,
2013-10-14 08:47:00,60.4,55.3,28.08,NE,45,0.0,1.1,83,0.00,,---,0.00,VWS V14.01,2013-10-14 12:47:00,
2013-10-14 08:52:00,60.6,55.4,28.08,ESE,112,1.1,1.1,83,0.00,,---,0.00,VWS V14.01,2013-10-14 12:52:00,
2013-10-14 08:57:00,60.8,55.6,28.11,WSW,248,0.9,0.9,83,0.00,,---,0.00,VWS V14.01,2013-10-14 12:57:00,
2013-10-14 09:02:00,61.0,55.8,28.11,ENE,68,0.0,1.3,83,0.00,,---,0.00,VWS V14.01,2013-10-14 13:02:00,
2013-10-14 09:07:00,61.3,56.1,28.11,NNW,338,2.2,2.9,83,0.00,,---,0.00,VWS V14.01,2013-10-14 13:07:00,
2013-10-14 09:12:00,61.5,56.3,28.11,NNE,22,0.0,0.0,83,0.00,,---,0.00,VWS V14.01,2013-10-14 13:12:00,
2013-10-14 09:17:00,61.7,56.5,28.11,NNE,22,1.3,1.3,83,0.00,,---,0.00,VWS V14.01,2013-10-14 13:17:00,
2013-10-14 09:22:00,61.9,56.7,28.11,ESE,112,0.0,0.0,83,0.00,,---,0.00,VWS V14.01,2013-10-14 13:22:00,
2013-10-14 09:27:00,62.2,57.0,28.11,East,90,2.0,2.5,83,0.00,,---,0.00,VWS V14.01,2013-10-14 13:27:00,
2013-10-14 09:32:00,62.4,57.2,28.11,East,90,0.0,0.0,83,0.00,,---,0.00,VWS V14.01,2013-10-14 13:32:00,
2013-10-14 09:37:00,62.6,57.4,28.11,West,270,0.0,0.0,83,0.00,,---,0.00,VWS V14.01,2013-10-14 13:37:00,
2013-10-14 09:42:00,63.0,57.7,28.11,East,90,0.0,0.0,83,0.00,,---,0.00,VWS V14.01,2013-10-14 13:42:00,
2013-10-14 09:47:00,63.1,57.9,28.11,NNW,338,0.0,0.0,83,0.00,,---,0.00,VWS V14.01,2013-10-14 13:47:00,
2013-10-14 09:52:00,63.5,58.2,28.11,NE,45,0.0,0.9,83,0.00,,---,0.00,VWS V14.01,2013-10-14 13:52:00,
2013-10-14 09:57:00,63.7,58.4,28.11,East,90,2.2,6.0,83,0.00,,---,0.00,VWS V14.01,2013-10-14 13:57:00,
2013-10-14 10:02:00,64.0,58.8,28.11,SE,135,3.1,7.6,83,0.00,,---,0.00,VWS V14.01,2013-10-14 14:02:00,
2013-10-14 10:08:00,64.0,58.8,28.11,South,180,2.0,2.9,83,0.00,,---,0.00,VWS V14.01,2013-10-14 14:08:00,
2013-10-14 10:13:00,64.4,58.8,28.11,ENE,68,3.6,3.6,82,0.00,,---,0.00,VWS V14.01,2013-10-14 14:13:00,
2013-10-14 10:18:00,64.6,59.0,28.11,SW,225,0.0,0.0,82,0.00,,---,0.00,VWS V14.01,2013-10-14 14:18:00,
2013-10-14 10:23:00,64.8,59.1,28.11,WNW,292,1.3,1.3,82,0.00,,---,0.00,VWS V14.01,2013-10-14 14:23:00,
2013-10-14 10:28:00,64.9,59.3,28.11,SSE,158,1.6,2.2,82,0.00,,---,0.00,VWS V14.01,2013-10-14 14:28:00,
2013-10-14 10:33:00,64.8,59.1,28.11,South,180,2.0,2.9,82,0.00,,---,0.00,VWS V14.01,2013-10-14 14:33:00,
2013-10-14 10:38:00,65.3,60.0,28.11,ENE,68,0.0,2.2,83,0.00,,---,0.00,VWS V14.01,2013-10-14 14:38:00,
2013-10-14 10:43:00,65.5,59.8,28.11,WNW,292,0.0,0.0,82,0.00,,---,0.00,VWS V14.01,2013-10-14 14:43:00,
2013-10-14 10:48:00,66.0,60.4,28.11,ESE,112,0.0,2.7,82,0.00,,---,0.00,VWS V14.01,2013-10-14 14:48:00,
2013-10-14 10:53:00,66.4,60.4,28.11,East,90,0.0,0.0,81,0.00,,---,0.00,VWS V14.01,2013-10-14 14:53:00,
2013-10-14 10:58:00,66.9,60.2,28.11,ESE,112,2.5,2.5,79,0.00,,---,0.00,VWS V14.01,2013-10-14 14:58:00,
2013-10-14 11:03:00,67.1,60.0,28.11,West,270,2.7,2.7,78,0.00,,---,0.00,VWS V14.01,2013-10-14 15:03:00,
2013-10-14 11:08:00,66.9,59.8,28.11,SSE,158,3.6,3.6,78,0.00,,---,0.00,VWS V14.01,2013-10-14 15:08:00,
2013-10-14 11:13:00,66.9,59.8,28.11,ESE,112,0.0,1.6,78,0.00,,---,0.00,VWS V14.01,2013-10-14 15:13:00,
2013-10-14 11:19:00,66.7,59.7,28.11,WSW,248,2.2,6.3,78,0.00,,---,0.00,VWS V14.01,2013-10-14 15:19:00,
2013-10-14 11:24:00,66.6,59.5,28.11,SSW,202,0.0,5.6,78,0.00,,---,0.00,VWS V14.01,2013-10-14 15:24:00,
2013-10-14 11:29:00,66.7,60.0,28.11,NW,315,0.9,3.6,79,0.00,,---,0.00,VWS V14.01,2013-10-14 15:29:00,
2013-10-14 11:34:00,66.7,60.0,28.11,NNE,22,1.6,4.9,79,0.00,,---,0.00,VWS V14.01,2013-10-14 15:34:00,
2013-10-14 11:39:00,66.9,60.2,28.08,NE,45,0.0,0.0,79,0.00,,---,0.00,VWS V14.01,2013-10-14 15:39:00,
2013-10-14 11:44:00,66.9,60.2,28.08,South,180,0.9,1.1,79,0.00,,---,0.00,VWS V14.01,2013-10-14 15:44:00,
2013-10-14 11:49:00,67.1,60.4,28.08,SE,135,1.3,1.3,79,0.00,,---,0.00,VWS V14.01,2013-10-14 15:49:00,
2013-10-14 11:54:00,67.5,60.7,28.08,SE,135,1.1,3.6,79,0.00,,---,0.00,VWS V14.01,2013-10-14 15:54:00,
2013-10-14 11:59:00,67.8,60.7,28.08,ENE,68,1.3,4.0,78,0.00,,---,0.00,VWS V14.01,2013-10-14 15:59:00,
2013-10-14 12:04:00,68.2,60.7,28.08,ENE,68,2.7,2.7,77,0.00,,---,0.00,VWS V14.01,2013-10-14 16:04:00,
2013-10-14 12:09:00,68.2,60.7,28.08,East,90,0.0,0.0,77,0.00,,---,0.00,VWS V14.01,2013-10-14 16:09:00,
2013-10-14 12:14:00,68.4,60.5,28.08,NE,45,0.0,0.0,76,0.00,,---,0.00,VWS V14.01,2013-10-14 16:14:00,
2013-10-14 12:19:00,68.7,60.9,28.08,West,270,2.0,2.7,76,0.00,,---,0.00,VWS V14.01,2013-10-14 16:19:00,
2013-10-14 12:24:00,68.7,60.5,28.08,NE,45,0.0,0.0,75,0.00,,---,0.00,VWS V14.01,2013-10-14 16:24:00,
2013-10-14 12:29:00,68.9,60.7,28.08,SW,225,0.0,1.6,75,0.00,,---,0.00,VWS V14.01,2013-10-14 16:29:00,
2013-10-14 12:34:00,69.1,60.8,28.08,WNW,292,1.6,2.9,75,0.00,,---,0.00,VWS V14.01,2013-10-14 16:34:00,
2013-10-14 12:39:00,69.4,61.2,28.08,NE,45,0.9,0.9,75,0.00,,---,0.00,VWS V14.01,2013-10-14 16:39:00,
2013-10-14 12:44:00,69.4,60.8,28.08,North,0,2.5,3.1,74,0.00,,---,0.00,VWS V14.01,2013-10-14 16:44:00,
2013-10-14 12:49:00,69.6,60.2,28.08,WNW,292,1.1,3.1,72,0.00,,---,0.00,VWS V14.01,2013-10-14 16:49:00,
2013-10-14 12:54:00,70.0,60.5,28.08,South,180,4.0,4.0,72,0.00,,---,0.00,VWS V14.01,2013-10-14 16:54:00,
2013-10-14 12:59:00,69.8,60.0,28.08,WNW,292,3.1,3.1,71,0.00,,---,0.00,VWS V14.01,2013-10-14 16:59:00,
2013-10-14 13:04:00,69.6,59.4,28.08,NE,45,2.0,4.0,70,0.00,,---,0.00,VWS V14.01,2013-10-14 17:04:00,
2013-10-14 13:09:00,69.6,59.8,28.08,South,180,0.0,0.0,71,0.00,,---,0.00,VWS V14.01,2013-10-14 17:09:00,
2013-10-14 13:14:00,69.8,60.0,28.08,ESE,112,1.3,1.3,71,0.00,,---,0.00,VWS V14.01,2013-10-14 17:14:00,
2013-10-14 13:19:00,70.0,60.5,28.08,WNW,292,0.0,0.9,72,0.00,,---,0.00,VWS V14.01,2013-10-14 17:19:00,
2013-10-14 13:24:00,70.2,60.3,28.08,WNW,292,2.2,3.8,71,0.00,,---,0.00,VWS V14.01,2013-10-14 17:24:00,
2013-10-14 13:30:00,70.2,60.3,28.08,WNW,292,0.0,1.6,71,0.00,,---,0.00,VWS V14.01,2013-10-14 17:30:00,
2013-10-14 13:35:00,70.5,60.7,28.05,WSW,248,0.9,3.8,71,0.00,,---,0.00,VWS V14.01,2013-10-14 17:35:00,
2013-10-14 13:40:00,70.7,60.5,28.05,North,0,1.3,1.3,70,0.00,,---,0.00,VWS V14.01,2013-10-14 17:40:00,
2013-10-14 13:45:00,70.7,60.5,28.05,North,0,2.9,2.9,70,0.00,,---,0.00,VWS V14.01,2013-10-14 17:45:00,
2013-10-14 13:50:00,70.9,60.2,28.05,SSW,202,0.0,1.3,69,0.00,,---,0.00,VWS V14.01,2013-10-14 17:50:00,
2013-10-14 13:55:00,70.9,60.6,28.05,NNW,338,2.7,4.0,70,0.00,,---,0.00,VWS V14.01,2013-10-14 17:55:00,
2013-10-14 14:00:00,71.8,60.7,28.05,WSW,248,1.1,1.6,68,0.00,,---,0.00,VWS V14.01,2013-10-14 18:00:00,
2013-10-14 14:05:00,71.8,60.7,28.05,South,180,0.0,0.0,68,0.00,,---,0.00,VWS V14.01,2013-10-14 18:05:00,
2013-10-14 14:10:00,72.1,61.0,28.05,WNW,292,1.6,1.6,68,0.00,,---,0.00,VWS V14.01,2013-10-14 18:10:00,
2013-10-14 14:15:00,72.3,60.8,28.05,NE,45,1.3,2.5,67,0.00,,---,0.00,VWS V14.01,2013-10-14 18:15:00,
2013-10-14 14:20:00,72.3,60.3,28.05,ESE,112,1.3,2.0,66,0.00,,---,0.00,VWS V14.01,2013-10-14 18:20:00,
2013-10-14 14:25:00,72.1,60.2,28.05,SW,225,0.0,0.0,66,0.00,,---,0.00,VWS V14.01,2013-10-14 18:25:00,
2013-10-14 14:30:00,72.3,59.9,28.05,SSW,202,1.6,1.6,65,0.00,,---,0.00,VWS V14.01,2013-10-14 18:30:00,
2013-10-14 14:35:00,72.1,59.3,28.05,WSW,248,0.9,1.3,64,0.00,,---,0.00,VWS V14.01,2013-10-14 18:35:00,
2013-10-14 14:40:00,72.1,59.3,28.05,WNW,292,1.6,1.6,64,0.00,,---,0.00,VWS V14.01,2013-10-14 18:40:00,
2013-10-14 14:45:00,72.1,59.3,28.05,ENE,68,0.0,0.0,64,0.00,,---,0.00,VWS V14.01,2013-10-14 18:45:00,
2013-10-14 14:50:00,72.0,59.1,28.02,ENE,68,0.0,0.0,64,0.00,,---,0.00,VWS V14.01,2013-10-14 18:50:00,
2013-10-14 14:55:00,72.0,59.1,28.02,SW,225,0.0,0.0,64,0.00,,---,0.00,VWS V14.01,2013-10-14 18:55:00,
2013-10-14 15:00:00,72.0,59.1,28.02,SSE,158,1.1,1.3,64,0.00,,---,0.00,VWS V14.01,2013-10-14 19:00:00,
2013-10-14 15:05:00,72.0,59.1,28.02,North,0,2.2,2.2,64,0.00,,---,0.00,VWS V14.01,2013-10-14 19:05:00,
2013-10-14 15:10:00,71.8,58.5,28.02,NNE,22,1.6,1.6,63,0.00,,---,0.00,VWS V14.01,2013-10-14 19:10:00,
2013-10-14 15:15:00,71.8,58.1,28.02,South,180,0.0,1.1,62,0.00,,---,0.00,VWS V14.01,2013-10-14 19:15:00,
2013-10-14 15:20:00,71.8,59.0,28.02,SE,135,0.0,0.0,64,0.00,,---,0.00,VWS V14.01,2013-10-14 19:20:00,
2013-10-14 15:25:00,71.8,58.5,28.02,WNW,292,0.0,0.0,63,0.00,,---,0.00,VWS V14.01,2013-10-14 19:25:00,
2013-10-14 15:30:00,71.8,58.1,28.02,South,180,0.0,0.0,62,0.00,,---,0.00,VWS V14.01,2013-10-14 19:30:00,
2013-10-14 15:35:00,71.8,58.5,28.02,SSE,158,0.0,0.0,63,0.00,,---,0.00,VWS V14.01,2013-10-14 19:35:00,
2013-10-14 15:40:00,71.8,59.0,28.02,East,90,1.1,1.1,64,0.00,,---,0.00,VWS V14.01,2013-10-14 19:40:00,
2013-10-14 15:45:00,71.8,58.1,28.02,East,90,0.9,0.9,62,0.00,,---,0.00,VWS V14.01,2013-10-14 19:45:00,
2013-10-14 15:51:00,71.6,57.9,28.02,East,90,0.0,1.1,62,0.00,,---,0.00,VWS V14.01,2013-10-14 19:51:00,
2013-10-14 15:56:00,71.4,58.2,28.02,WNW,292,1.1,1.1,63,0.00,,---,0.00,VWS V14.01,2013-10-14 19:56:00,
2013-10-14 16:01:00,71.6,57.9,28.02,West,270,0.0,0.0,62,0.00,,---,0.00,VWS V14.01,2013-10-14 20:01:00,
2013-10-14 16:06:00,71.8,58.5,28.02,NW,315,0.9,1.3,63,0.00,,---,0.00,VWS V14.01,2013-10-14 20:06:00,
2013-10-14 16:11:00,72.1,58.0,28.02,NW,315,1.6,1.6,61,0.00,,---,0.00,VWS V14.01,2013-10-14 20:11:00,
2013-10-14 16:16:00,72.1,57.5,28.02,ENE,68,0.0,1.3,60,0.00,,---,0.00,VWS V14.01,2013-10-14 20:16:00,
2013-10-14 16:21:00,72.1,57.0,28.02,East,90,0.0,0.0,59,0.00,,---,0.00,VWS V14.01,2013-10-14 20:21:00,
2013-10-14 16:26:00,72.1,57.5,28.02,NNW,338,0.0,0.0,60,0.00,,---,0.00,VWS V14.01,2013-10-14 20:26:00,
2013-10-14 16:31:00,72.1,57.5,28.02,East,90,0.0,0.0,60,0.00,,---,0.00,VWS V14.01,2013-10-14 20:31:00,
2013-10-14 16:36:00,72.1,58.0,28.02,North,0,0.0,0.0,61,0.00,,---,0.00,VWS V14.01,2013-10-14 20:36:00,
2013-10-14 16:41:00,72.3,58.1,28.02,WNW,292,0.0,1.1,61,0.00,,---,0.00,VWS V14.01,2013-10-14 20:41:00,
2013-10-14 16:46:00,72.3,58.1,28.02,NNW,338,1.6,1.6,61,0.00,,---,0.00,VWS V14.01,2013-10-14 20:46:00,
2013-10-14 16:51:00,72.1,58.0,28.02,ENE,68,0.0,0.0,61,0.00,,---,0.00,VWS V14.01,2013-10-14 20:51:00,
2013-10-14 16:56:00,72.0,57.8,28.02,East,90,0.9,2.2,61,0.00,,---,0.00,VWS V14.01,2013-10-14 20:56:00,
2013-10-14 17:01:00,71.6,57.0,28.02,ESE,112,0.0,0.0,60,0.00,,---,0.00,VWS V14.01,2013-10-14 21:01:00,
2013-10-14 17:02:00,71.6,57.0,28.02,East,90,0.0,0.9,60,0.00,,---,0.00,VWS V14.01,2013-10-14 21:02:00,
2013-10-14 17:07:00,71.2,57.6,28.02,NNW,338,0.0,0.0,62,0.00,,---,0.00,VWS V14.01,2013-10-14 21:07:00,
2013-10-14 17:12:00,71.1,57.8,28.02,West,270,0.0,0.0,63,0.00,,---,0.00,VWS V14.01,2013-10-14 21:12:00,
2013-10-14 17:18:00,71.1,57.8,28.02,East,90,0.0,0.0,63,0.00,,---,0.00,VWS V14.01,2013-10-14 21:18:00,
2013-10-14 17:23:00,70.9,57.7,28.02,SSW,202,0.0,0.0,63,0.00,,---,0.00,VWS V14.01,2013-10-14 21:23:00,
2013-10-14 17:28:00,70.9,58.1,28.02,South,180,0.0,0.0,64,0.00,,---,0.00,VWS V14.01,2013-10-14 21:28:00,
2013-10-14 17:33:00,71.1,58.3,28.02,NW,315,0.0,0.0,64,0.00,,---,0.00,VWS V14.01,2013-10-14 21:33:00,
2013-10-14 17:38:00,70.9,58.5,28.02,NW,315,0.0,0.0,65,0.00,,---,0.00,VWS V14.01,2013-10-14 21:38:00,
2013-10-14 17:43:00,70.7,57.9,28.02,NW,315,0.0,0.0,64,0.00,,---,0.00,VWS V14.01,2013-10-14 21:43:00,
2013-10-14 17:48:00,70.5,58.2,28.02,NW,315,0.0,0.0,65,0.00,,---,0.00,VWS V14.01,2013-10-14 21:48:00,
2013-10-14 17:53:00,70.3,58.0,28.02,South,180,0.0,0.0,65,0.00,,---,0.00,VWS V14.01,2013-10-14 21:53:00,
2013-10-14 17:58:00,70.2,58.3,28.02,SSE,158,0.0,0.0,66,0.00,,---,0.00,VWS V14.01,2013-10-14 21:58:00,
2013-10-14 18:03:00,70.0,57.7,28.02,WNW,292,0.0,0.0,65,0.00,,---,0.00,VWS V14.01,2013-10-14 22:03:00,
2013-10-14 18:08:00,69.8,57.5,28.02,NE,45,0.0,0.0,65,0.00,,---,0.00,VWS V14.01,2013-10-14 22:08:00,
2013-10-14 18:13:00,69.4,57.6,28.02,NE,45,0.0,0.0,66,0.00,,---,0.00,VWS V14.01,2013-10-14 22:13:00,
2013-10-14 18:18:00,69.1,57.7,28.02,NE,45,0.0,0.0,67,0.00,,---,0.00,VWS V14.01,2013-10-14 22:18:00,
2013-10-14 18:23:00,68.9,57.9,28.02,NE,45,0.0,0.0,68,0.00,,---,0.00,VWS V14.01,2013-10-14 22:23:00,
2013-10-14 18:28:00,68.5,58.0,28.02,NE,45,0.0,0.0,69,0.00,,---,0.00,VWS V14.01,2013-10-14 22:28:00,
2013-10-14 18:33:00,68.4,58.2,28.02,NE,45,0.0,0.0,70,0.00,,---,0.00,VWS V14.01,2013-10-14 22:33:00,
2013-10-14 18:38:00,68.4,58.2,28.02,NE,45,0.0,0.0,70,0.00,,---,0.00,VWS V14.01,2013-10-14 22:38:00,
2013-10-14 18:43:00,68.2,58.0,28.02,NE,45,0.0,0.0,70,0.00,,---,0.00,VWS V14.01,2013-10-14 22:43:00,
2013-10-14 18:48:00,68.0,58.3,28.02,North,0,0.0,1.3,71,0.00,,---,0.00,VWS V14.01,2013-10-14 22:48:00,
2013-10-14 18:53:00,67.8,58.5,28.02,SSE,158,0.0,0.0,72,0.00,,---,0.00,VWS V14.01,2013-10-14 22:53:00,
2013-10-14 18:58:00,67.8,58.9,28.02,NNW,338,0.0,0.0,73,0.00,,---,0.00,VWS V14.01,2013-10-14 22:58:00,
2013-10-14 19:03:00,67.6,58.7,28.02,ENE,68,0.0,0.0,73,0.00,,---,0.00,VWS V14.01,2013-10-14 23:03:00,
2013-10-14 19:08:00,67.5,58.5,28.02,WNW,292,0.0,0.0,73,0.00,,---,0.00,VWS V14.01,2013-10-14 23:08:00,
2013-10-14 19:13:00,67.3,58.7,28.02,WNW,292,0.0,0.0,74,0.00,,---,0.00,VWS V14.01,2013-10-14 23:13:00,
2013-10-14 19:18:00,67.1,58.5,28.02,WNW,292,0.0,0.0,74,0.00,,---,0.00,VWS V14.01,2013-10-14 23:18:00,
2013-10-14 19:23:00,66.9,58.4,28.02,WNW,292,0.0,0.0,74,0.00,,---,0.00,VWS V14.01,2013-10-14 23:23:00,
2013-10-14 19:28:00,66.7,58.2,28.02,WNW,292,0.0,0.0,74,0.00,,---,0.00,VWS V14.01,2013-10-14 23:28:00,
2013-10-14 19:33:00,66.6,58.0,28.02,WNW,292,0.0,0.0,74,0.00,,---,0.00,VWS V14.01,2013-10-14 23:33:00,
2013-10-14 19:38:00,66.6,58.4,28.02,North,0,0.0,0.0,75,0.00,,---,0.00,VWS V14.01,2013-10-14 23:38:00,
2013-10-14 19:44:00,66.6,58.4,28.02,WSW,248,0.0,0.0,75,0.00,,---,0.00,VWS V14.01,2013-10-14 23:44:00,
2013-10-14 19:49:00,66.4,58.2,28.02,NNE,22,0.0,0.0,75,0.00,,---,0.00,VWS V14.01,2013-10-14 23:49:00,
2013-10-14 19:54:00,66.2,58.0,28.02,NNE,22,0.0,0.0,75,0.00,,---,0.00,VWS V14.01,2013-10-14 23:54:00,
2013-10-14 19:59:00,66.2,58.4,28.02,ENE,68,0.0,0.9,76,0.00,,---,0.00,VWS V14.01,2013-10-14 23:59:00,
2013-10-14 20:04:00,66.0,58.2,28.02,East,90,0.0,0.0,76,0.00,,---,0.00,VWS V14.01,2013-10-15 00:04:00,
2013-10-14 20:09:00,66.0,58.2,28.02,East,90,0.0,0.0,76,0.00,,---,0.00,VWS V14.01,2013-10-15 00:09:00,
2013-10-14 20:14:00,65.8,58.4,28.02,NW,315,0.0,0.0,77,0.00,,---,0.00,VWS V14.01,2013-10-15 00:14:00,
2013-10-14 20:19:00,65.8,58.4,28.02,NNW,338,0.0,0.0,77,0.00,,---,0.00,VWS V14.01,2013-10-15 00:19:00,
2013-10-14 20:24:00,65.8,58.8,28.02,SSW,202,0.0,0.0,78,0.00,,---,0.00,VWS V14.01,2013-10-15 00:24:00,
2013-10-14 20:29:00,65.8,58.8,28.02,SSW,202,0.0,0.0,78,0.00,,---,0.00,VWS V14.01,2013-10-15 00:29:00,
2013-10-14 20:34:00,65.7,58.6,28.02,NE,45,0.0,0.0,78,0.00,,---,0.00,VWS V14.01,2013-10-15 00:34:00,
2013-10-14 20:39:00,65.7,59.0,28.02,South,180,0.0,0.0,79,0.00,,---,0.00,VWS V14.01,2013-10-15 00:39:00,
2013-10-14 20:44:00,65.5,59.2,28.02,South,180,0.0,0.0,80,0.00,,---,0.00,VWS V14.01,2013-10-15 00:44:00,
2013-10-14 20:49:00,65.5,59.2,28.02,South,180,0.0,0.0,80,0.00,,---,0.00,VWS V14.01,2013-10-15 00:49:00,
2013-10-14 20:54:00,65.3,59.3,28.02,South,180,0.0,0.0,81,0.00,,---,0.00,VWS V14.01,2013-10-15 00:54:00,
2013-10-14 20:59:00,65.1,59.2,28.02,South,180,0.0,0.0,81,0.00,,---,0.00,VWS V14.01,2013-10-15 00:59:00,
2013-10-14 21:04:00,64.9,59.0,28.02,South,180,0.0,0.0,81,0.00,,---,0.00,VWS V14.01,2013-10-15 01:04:00,
2013-10-14 21:09:00,64.8,59.1,28.02,South,180,0.0,0.0,82,0.00,,---,0.00,VWS V14.01,2013-10-15 01:09:00,
2013-10-14 21:14:00,64.6,59.0,28.02,South,180,0.0,0.0,82,0.00,,---,0.00,VWS V14.01,2013-10-15 01:14:00,
2013-10-14 21:19:00,64.4,58.8,28.02,South,180,0.0,0.0,82,0.00,,---,0.00,VWS V14.01,2013-10-15 01:19:00,
2013-10-14 21:24:00,64.2,59.0,28.02,South,180,0.0,0.0,83,0.00,,---,0.00,VWS V14.01,2013-10-15 01:24:00,
2013-10-14 21:29:00,63.9,58.9,28.02,South,180,0.0,0.0,84,0.00,,---,0.00,VWS V14.01,2013-10-15 01:29:00,
2013-10-14 21:34:00,63.7,58.8,28.02,South,180,0.0,0.0,84,0.00,,---,0.00,VWS V14.01,2013-10-15 01:34:00,
2013-10-14 21:39:00,63.5,58.6,28.02,South,180,0.0,0.0,84,0.00,,---,0.00,VWS V14.01,2013-10-15 01:39:00,
2013-10-14 21:44:00,63.3,58.7,28.02,South,180,0.0,0.0,85,0.00,,---,0.00,VWS V14.01,2013-10-15 01:44:00,
2013-10-14 21:49:00,63.3,58.7,28.02,South,180,0.0,0.0,85,0.00,,---,0.00,VWS V14.01,2013-10-15 01:49:00,
2013-10-14 21:54:00,63.5,59.2,28.02,South,180,0.0,0.0,86,0.00,,---,0.00,VWS V14.01,2013-10-15 01:54:00,
2013-10-14 21:59:00,63.7,59.4,28.02,ESE,112,0.0,0.0,86,0.00,,---,0.00,VWS V14.01,2013-10-15 01:59:00,
2013-10-14 22:04:00,63.9,59.6,28.02,ESE,112,0.0,0.0,86,0.00,,---,0.00,VWS V14.01,2013-10-15 02:04:00,
2013-10-14 22:09:00,64.0,59.8,28.02,East,90,0.0,0.0,86,0.00,,---,0.00,VWS V14.01,2013-10-15 02:09:00,
2013-10-14 22:14:00,64.2,60.0,28.02,ESE,112,0.0,0.0,86,0.00,,---,0.00,VWS V14.01,2013-10-15 02:14:00,
2013-10-14 22:19:00,64.4,59.8,28.02,SSE,158,0.0,0.0,85,0.00,,---,0.00,VWS V14.01,2013-10-15 02:19:00,
2013-10-14 22:24:00,64.4,59.8,28.02,SSW,202,0.0,0.0,85,0.00,,---,0.00,VWS V14.01,2013-10-15 02:24:00,
2013-10-14 22:29:00,64.4,59.8,28.02,SSW,202,0.0,0.0,85,0.00,,---,0.00,VWS V14.01,2013-10-15 02:29:00,
2013-10-14 22:35:00,64.4,59.8,28.05,SSW,202,0.0,0.0,85,0.00,,---,0.00,VWS V14.01,2013-10-15 02:35:00,
2013-10-14 22:40:00,64.4,59.5,28.05,SE,135,0.0,0.0,84,0.00,,---,0.00,VWS V14.01,2013-10-15 02:40:00,
2013-10-14 22:45:00,64.4,59.5,28.05,SE,135,0.0,0.0,84,0.00,,---,0.00,VWS V14.01,2013-10-15 02:45:00,
2013-10-14 22:50:00,64.2,59.6,28.02,ESE,112,0.0,0.0,85,0.00,,---,0.00,VWS V14.01,2013-10-15 02:50:00,
2013-10-14 22:55:00,64.0,59.5,28.02,ESE,112,0.0,0.9,85,0.00,,---,0.00,VWS V14.01,2013-10-15 02:55:00,
2013-10-14 23:00:00,63.9,59.3,28.02,South,180,0.0,0.0,85,0.00,,---,0.00,VWS V14.01,2013-10-15 03:00:00,
2013-10-14 23:05:00,63.5,58.9,28.02,WNW,292,0.0,0.0,85,0.00,,---,0.00,VWS V14.01,2013-10-15 03:05:00,
2013-10-14 23:10:00,63.5,59.2,28.02,East,90,0.0,0.0,86,0.00,,---,0.00,VWS V14.01,2013-10-15 03:10:00,
2013-10-14 23:15:00,63.3,58.7,28.02,NNW,338,0.0,0.0,85,0.00,,---,0.00,VWS V14.01,2013-10-15 03:15:00,
2013-10-14 23:20:00,63.1,58.9,28.02,NNE,22,0.0,0.0,86,0.00,,---,0.00,VWS V14.01,2013-10-15 03:20:00,
2013-10-14 23:25:00,63.0,58.7,28.02,NE,45,0.0,1.1,86,0.00,,---,0.00,VWS V14.01,2013-10-15 03:25:00,
2013-10-14 23:30:00,63.0,58.7,28.02,West,270,0.0,0.0,86,0.00,,---,0.00,VWS V14.01,2013-10-15 03:30:00,
2013-10-14 23:35:00,63.0,58.7,28.05,West,270,0.0,0.0,86,0.00,,---,0.00,VWS V14.01,2013-10-15 03:35:00,
2013-10-14 23:40:00,63.0,59.0,28.05,West,270,0.0,0.0,87,0.00,,---,0.00,VWS V14.01,2013-10-15 03:40:00,
2013-10-14 23:45:00,63.0,59.4,28.05,SW,225,0.0,0.0,88,0.00,,---,0.00,VWS V14.01,2013-10-15 03:45:00,
2013-10-14 23:50:00,63.1,59.2,28.05,SSW,202,0.0,0.0,87,0.00,,---,0.00,VWS V14.01,2013-10-15 03:50:00,
2013-10-14 23:55:00,63.1,59.2,28.05,SW,225,0.0,0.0,87,0.00,,---,0.00,VWS V14.01,2013-10-15 03:55:00,